If you wish to contribute or participate in the discussions about articles you are invited to join SKYbrary as a registered user

 Actions

Akhiok Airport

From SKYbrary Wiki

PAKH
Airport
ICAO: PAKH – IATA: AKK
Summary
Name Akhiok Airport
Region North America
Territory Alaska US.gif
Location Akhiok, Alaska
Serving Akhiok
Elevation 13.411 m
44 ft
44 ft13.411 m
Type small airport
Coordinates 56° 56' 19.00" N, 154° 10' 57.00" W
Runways
Designator Length Width Surface ROPS
4/22 951 m3,120.079 ft
15 m49.213 ft
GRAVEL-G /


METAR
Observation PAKH 120656Z AUTO 03006KT BKN065 OVC080 06/03 A2950 RMK AO2 SLP991 T00610028 PWINO $
Station AKHIOK
Date/Time 12 November 2019 06:56:00
Wind direction 30°
Wind speed 06 kts
Lowest cloud amount broken clouds
Temperature 6.1°C
Dew point 2.8°C
Humidity 79%
QNH hPa
Weather condition n/a

Maps

Terrain

Loading map...

Airport Layout

Loading map...


Accidents & Serious Incidents at or in vicinity of PAKH

None on SKYbrary